• Processing (Info)

  • MPEC 2019-U113 : 2019 UU3

    The following Minor Planet Electronic Circular may be linked-to from your own Web pages, but must not otherwise be redistributed electronically.

    A form allowing access to any MPEC is at the bottom of this page.


    Read MPEC 2019-U112 Read MPEC 2019-U114


    M.P.E.C. 2019-U113                             Issued 2019 October 23, 16:23 UT
    
         The Minor Planet Electronic Circulars contain information on unusual
             minor planets and routine data on comets.  They are published
        on behalf of Division F of the International Astronomical Union by the
              Minor Planet Center, Smithsonian Astrophysical Observatory,
                              Cambridge, MA 02138, U.S.A.
    
                 Prepared using the Tamkin Foundation Computer Network
    
                                  MPC@CFA.HARVARD.EDU
                URL https://www.minorplanetcenter.net/    ISSN 1523-6714
    
                                    2019 UU3                                 
    
    
    Observations:
         K19U03U  C2019 10 19.35170100 56 28.402+33 08 15.02         22.5 GVEU113F51
         K19U03U  C2019 10 19.36419300 56 31.022+33 07 56.50         22.1 GVEU113F51
         K19U03U  C2019 10 19.37851600 56 34.057+33 07 34.87         22.1 GVEU113F51
         K19U03U* C2019 10 22.25147 01 10 49.75 +31 28 36.3          21.5 GVEU113G96
         K19U03U  C2019 10 22.25947 01 10 52.31 +31 28 15.0          21.3 GVEU113G96
         K19U03U  C2019 10 22.26982 01 10 55.70 +31 27 47.4          21.3 GVEU113G96
         K19U03U  C2019 10 22.36572 01 11 27.29 +31 23 21.1                VEU113I52
         K19U03U  C2019 10 22.36954 01 11 28.53 +31 23 09.2                VEU113I52
         K19U03U  C2019 10 22.37336 01 11 29.85 +31 22 58.0          21.6 GVEU113I52
         K19U03U  C2019 10 22.51493501 12 21.395+31 16 38.17         21.6 GVEU113F51
         K19U03U KC2019 10 23.17472701 16 46.01 +30 43 04.2          21.7 VuEU113H21
         K19U03U KC2019 10 23.17908701 16 47.68 +30 42 50.0          21.4 VuEU113H21
         K19U03U KC2019 10 23.18404301 16 49.55 +30 42 34.4          21.4 VuEU113H21
         K19U03U  C2019 10 23.19741 01 16 57.03 +30 41 57.6          21.4 GVEU113I52
         K19U03U  C2019 10 23.20158 01 16 58.59 +30 41 44.7          21.2 GVEU113I52
         K19U03U  C2019 10 23.20574 01 17 00.18 +30 41 31.8          21.0 GVEU113I52
    
    Observer details:
    F51 Pan-STARRS 1, Haleakala.  Observers J. Bulger, K. Chambers, T. Lowe, E. 
       Magnier, A. Schultz, M. Willman.  Measurers S. Chastel, M. Huber, Y. 
       Ramanjooloo, R. Wainscoat, R. Weryk.  1.8-m Ritchey-Chretien + CCD.
    G96 Mt. Lemmon Survey.  Observer D. C. Fuls.  Measurers E. J. Christensen, G. 
       A. Farneth, D. C. Fuls, A. R. Gibbs, A. D. Grauer, H. Groeller, R. A. 
       Kowalski, S. M. Larson, G. J. Leonard, T. A. Pruyne, D. Rankin, R. L. Seaman,
        F. C. Shelly, K. W. Wierzchos.  1.5-m reflector + 10K CCD.
    H21 Astronomical Research Observatory, Westfield.  Observer R. Holmes.  
        Measurers S. Foglia, L. Buzzi, T. Linder, R. Holmes.  0.76-m f/3.0 
       astrograph + CCD.
    I52 Steward Observatory, Mt. Lemmon Station.  Observers H. Groeller, R. A. 
       Kowalski, K. W. Wierzchos.  Measurers E. J. Christensen, G. A. Farneth, D. 
       C. Fuls, A. R. Gibbs, A. D. Grauer, H. Groeller, R. A. Kowalski, S. M. 
       Larson, G. J. Leonard, T. A. Pruyne, D. Rankin, R. L. Seaman, F. C. Shelly, 
       K. W. Wierzchos.  1.0-m reflector + CCD.
    
    Orbital elements:
    2019 UU3                                                 Earth MOID = 0.0312 AU
    Epoch 2019 Apr. 27.0 TT = JDT 2458600.5                 Bell
    M 302.74694              (2000.0)            P               Q
    n   0.26017178     Peri.  224.26162     +0.17672205     -0.97358699
    a   2.4301286      Node   216.28701     +0.95720516     +0.20420020
    e   0.6184869      Incl.   14.13809     +0.22918902     -0.10213053
    P   3.79           H   25.6           G   0.15           U   7
    Residuals in seconds of arc
    191019 F51  0.3+  0.1-    191022 I52  0.3+  0.9+    191023 H21  0.3-  0.1+
    191019 F51  0.1-  0.0     191022 I52  0.3-  0.0     191023 I52  0.3+  0.6-
    191019 F51  0.2-  0.1+    191022 I52  0.1+  0.2-    191023 I52  0.0   0.4-
    191022 G96  0.3+  0.1+    191022 F51  0.1+  0.1+    191023 I52  0.2+  0.3-
    191022 G96  0.1-  0.1+    191023 H21  0.6-  0.2+
    191022 G96  0.2+  0.2+    191023 H21  0.3-  0.1-
    
    Ephemeris:
    2019 UU3                 a,e,i = 2.43, 0.62, 14                  q = 0.9271
    Date    TT    R. A. (2000) Decl.     Delta      r    Elong.  Phase     V
    2019 09 23    00 20 10.6 +33 50 39   0.3636  1.3196   145.5    25.5    25.2
    ...
    2019 10 08    00 30 38.0 +35 02 28   0.2210  1.1961   150.1    24.6    23.9
    ...
    2019 10 16    00 45 15.6 +34 12 33   0.1520  1.1347   153.1    23.5    22.9
    ...
    2019 10 22    01 09 19.7 +31 39 38   0.1033  1.0916   157.6    20.3    21.9
    2019 10 23    01 15 33.4 +30 52 35   0.09548 1.0848   158.9    19.3    21.7
    2019 10 24    01 22 46.5 +29 54 56   0.08781 1.0780   160.4    18.1    21.4
    ...
    2019 10 30    02 44 07.8 +15 39 43   0.04668 1.0396   172.6     7.1    19.6
    ...
    2019 11 07    07 33 54.3 -37 57 54   0.04653 0.9953    93.7    83.6    21.9
    ...
    2019 11 22    10 38 41.1 -43 00 54   0.1524  0.9397    67.4   104.0    25.2
    
    A. U. Tomatic                (C) Copyright 2019 MPC           M.P.E.C. 2019-U113
    


    Read MPEC 2019-U112 Read MPEC 2019-U114


    MPEC number:

    Enter an MPEC number in one of the following forms:

    • 1997-B01 (the full form)
    • J97B01 (the packed version of the full form)
    • B01 (the abbreviated form)